This is the latest recevied weather packets stored in our database for station/object SQ7IQO. If no packets are shown the sender has not sent any weather packets the latest 10 day(s).
| Time | Temp. | Humidity | Pressure | Rain* | Wind** | Luminosity | Snow |
|---|---|---|---|---|---|---|---|
| 1787825860 | 22.78° C | 47% | 1024.5 hPa | 0 mm | 0.89 m/s, ° | - | - |
| 1787825800 | 23.33° C | 44% | 1024.5 hPa | 0 mm | 0 m/s | - | - |
| 1787825740 | 23.89° C | 50% | 1024.6 hPa | 0 mm | 0.45 m/s, ° | - | - |
| 1787825680 | 23.89° C | 49% | 1024.6 hPa | 0 mm | 0 m/s | - | - |
| 1787825620 | 23.89° C | 49% | 1024.6 hPa | 0 mm | 0 m/s | - | - |
| 1787825560 | 23.89° C | 47% | 1024.6 hPa | 0 mm | 0 m/s | - | - |
| 1787825500 | 23.33° C | 47% | 1024.6 hPa | 0 mm | 0 m/s | - | - |
| 1787825440 | 22.78° C | 48% | 1024.6 hPa | 0 mm | 0 m/s | - | - |
| 1787825380 | 23.33° C | 47% | 1024.6 hPa | 0 mm | 0.89 m/s, ° | - | - |
| 1787825320 | 23.33° C | 48% | 1024.5 hPa | 0 mm | 0 m/s | - | - |
| 1787825260 | 22.78° C | 48% | 1024.6 hPa | 0 mm | 0 m/s | - | - |
| 1787825200 | 23.33° C | 48% | 1024.6 hPa | 0 mm | 0.45 m/s, ° | - | - |
| 1787825140 | 22.78° C | 47% | 1024.6 hPa | 0 mm | 0.45 m/s, ° | - | - |
| 1787825080 | 22.78° C | 48% | 1024.6 hPa | 0 mm | 0.45 m/s, ° | - | - |
| 1787825020 | 22.78° C | 50% | 1024.6 hPa | 0 mm | 0 m/s | - | - |
| 1787824960 | 22.78° C | 46% | 1024.6 hPa | 0 mm | 0.45 m/s, ° | - | - |
| 1787824900 | 23.33° C | 48% | 1024.6 hPa | 0 mm | 0.89 m/s, ° | - | - |
| 1787824840 | 22.78° C | 48% | 1024.6 hPa | 0 mm | 0 m/s | - | - |
| 1787824780 | 22.78° C | 48% | 1024.6 hPa | 0 mm | 0 m/s | - | - |
| 1787824720 | 22.78° C | 46% | 1024.6 hPa | 0 mm | 0 m/s | - | - |
| 1787824660 | 23.33° C | 44% | 1024.6 hPa | 0 mm | 0.89 m/s, ° | - | - |
| 1787824600 | 24.44° C | 45% | 1024.6 hPa | 0 mm | 1.34 m/s, ° | - | - |
| 1787824540 | 23.89° C | 49% | 1024.6 hPa | 0 mm | 0 m/s | - | - |
| 1787824480 | 23.89° C | 47% | 1024.6 hPa | 0 mm | 0 m/s | - | - |
| 1787824420 | 23.33° C | 48% | 1024.6 hPa | 0 mm | 0 m/s | - | - |
* Rain latest hour (hover to see other rain measurements)
** Current wind speed in m/s (hover to see current wind gust speed)